contact:dominique.lefevre@mio.osupytheas.fr, maurice.libes@osupytheas.fr, didier.mallarino@osupytheas.fr
Project:EMSO http://www.emso-fr.org/EMSO-France
Depth: 2436.0 m
Title:EMSO Ligure Ouest : Data MII capteur CSTAR
DateTime,Latitude,Longitude,Instrument_Serial,Reference_Counts,Signal_Counts,Corrected_Signal_raw_counts,Calculated_Beam_c_inverse_meters,Internal_thermistor_counts
DateTime,Latitude,Longitude,Instrument_Serial,Reference_Counts,Signal_Counts,Corrected_Signal_raw_counts,Calculated_Beam_c_inverse_meters,Internal_thermistor_counts
2020-11-14T00:02:06,42.805,6.029,CST-1368DR,5795,8109,15068,0.143,551
2020-11-14T00:05:08,42.805,6.029,CST-1368DR,5795,8110,15071,0.142,551
2020-11-14T00:08:09,42.805,6.029,CST-1368DR,5795,8108,15066,0.143,551
2020-11-14T00:11:11,42.805,6.029,CST-1368DR,5795,8108,15066,0.143,551
2020-11-14T00:14:12,42.805,6.029,CST-1368DR,5795,8110,15070,0.142,551
2020-11-14T00:17:14,42.805,6.029,CST-1368DR,5795,8111,15073,0.142,551
2020-11-14T00:20:16,42.805,6.029,CST-1368DR,5795,8108,15066,0.143,550
2020-11-14T00:23:17,42.805,6.029,CST-1368DR,5795,8106,15063,0.144,551
2020-11-14T00:26:19,42.805,6.029,CST-1368DR,5795,8111,15072,0.142,551
2020-11-14T00:29:20,42.805,6.029,CST-1368DR,5795,8111,15072,0.142,551
2020-11-14T00:32:22,42.805,6.029,CST-1368DR,5795,8109,15068,0.143,551
2020-11-14T00:35:23,42.805,6.029,CST-1368DR,5795,8111,15071,0.142,550
2020-11-14T00:38:25,42.805,6.029,CST-1368DR,5795,8111,15073,0.142,551
2020-11-14T00:41:27,42.805,6.029,CST-1368DR,5795,8111,15072,0.142,551
2020-11-14T00:44:28,42.805,6.029,CST-1368DR,5795,8111,15071,0.142,551
2020-11-14T00:47:30,42.805,6.029,CST-1368DR,5795,8111,15072,0.142,551
2020-11-14T00:50:31,42.805,6.029,CST-1368DR,5795,8110,15071,0.142,551
2020-11-14T00:53:33,42.805,6.029,CST-1368DR,5795,8109,15069,0.143,551
2020-11-14T00:56:35,42.805,6.029,CST-1368DR,5795,8111,15072,0.142,551
2020-11-14T00:59:36,42.805,6.029,CST-1368DR,5795,8111,15071,0.142,551
2020-11-14T01:02:38,42.805,6.029,CST-1368DR,5795,8110,15070,0.142,551
2020-11-14T01:05:39,42.805,6.029,CST-1368DR,5795,8111,15072,0.142,551
2020-11-14T01:08:41,42.805,6.029,CST-1368DR,5795,8111,15072,0.142,551
2020-11-14T01:11:42,42.805,6.029,CST-1368DR,5795,8111,15071,0.142,551
2020-11-14T01:14:44,42.805,6.029,CST-1368DR,5795,8111,15073,0.142,551
2020-11-14T01:17:46,42.805,6.029,CST-1368DR,5795,8111,15073,0.142,550
2020-11-14T01:20:47,42.805,6.029,CST-1368DR,5794,8111,15074,0.141,551
2020-11-14T01:23:49,42.805,6.029,CST-1368DR,5794,8110,15072,0.142,551
2020-11-14T01:26:50,42.805,6.029,CST-1368DR,5794,8110,15073,0.142,551
2020-11-14T01:29:52,42.805,6.029,CST-1368DR,5794,8110,15072,0.142,551
2020-11-14T01:32:53,42.805,6.029,CST-1368DR,5795,8111,15072,0.142,551
2020-11-14T01:35:55,42.805,6.029,CST-1368DR,5794,8106,15065,0.144,551
2020-11-14T01:38:57,42.805,6.029,CST-1368DR,5794,8110,15073,0.142,551
2020-11-14T01:41:58,42.805,6.029,CST-1368DR,5794,8110,15073,0.142,551
2020-11-14T01:45:00,42.805,6.029,CST-1368DR,5794,8109,15071,0.142,551
2020-11-14T01:48:01,42.805,6.029,CST-1368DR,5794,8108,15068,0.143,551
2020-11-14T01:51:03,42.805,6.029,CST-1368DR,5794,8107,15067,0.143,551
2020-11-14T01:54:05,42.805,6.029,CST-1368DR,5794,8108,15068,0.143,551
2020-11-14T01:57:06,42.805,6.029,CST-1368DR,5794,8108,15068,0.143,551
2020-11-14T02:00:08,42.805,6.029,CST-1368DR,5794,8110,15073,0.142,551
2020-11-14T02:03:09,42.805,6.029,CST-1368DR,5794,8109,15071,0.142,551
2020-11-14T02:06:11,42.805,6.029,CST-1368DR,5794,8111,15074,0.141,551
2020-11-14T02:09:12,42.805,6.029,CST-1368DR,5794,8110,15073,0.142,551
2020-11-14T02:12:14,42.805,6.029,CST-1368DR,5794,8111,15074,0.141,551
2020-11-14T02:15:16,42.805,6.029,CST-1368DR,5794,8110,15073,0.142,551
2020-11-14T02:18:17,42.805,6.029,CST-1368DR,5794,8110,15073,0.142,551
2020-11-14T02:21:19,42.805,6.029,CST-1368DR,5794,8110,15073,0.142,551
2020-11-14T02:24:20,42.805,6.029,CST-1368DR,5794,8110,15073,0.142,551
2020-11-14T02:27:22,42.805,6.029,CST-1368DR,5794,8110,15073,0.142,551
2020-11-14T02:30:23,42.805,6.029,CST-1368DR,5794,8107,15067,0.143,551
2020-11-14T02:33:25,42.805,6.029,CST-1368DR,5794,8110,15072,0.142,551
2020-11-14T02:36:27,42.805,6.029,CST-1368DR,5794,8111,15074,0.141,551
2020-11-14T02:39:28,42.805,6.029,CST-1368DR,5794,8110,15073,0.142,551
2020-11-14T02:42:30,42.805,6.029,CST-1368DR,5794,8111,15074,0.141,551
2020-11-14T02:45:31,42.805,6.029,CST-1368DR,5794,8110,15073,0.142,551
2020-11-14T02:48:33,42.805,6.029,CST-1368DR,5794,8111,15074,0.141,551
2020-11-14T02:51:35,42.805,6.029,CST-1368DR,5794,8110,15073,0.142,551
2020-11-14T02:54:36,42.805,6.029,CST-1368DR,5794,8105,15063,0.144,551
2020-11-14T02:57:38,42.805,6.029,CST-1368DR,5794,8110,15072,0.142,551
2020-11-14T03:00:39,42.805,6.029,CST-1368DR,5794,8109,15070,0.142,551
2020-11-14T03:03:41,42.805,6.029,CST-1368DR,5794,8110,15072,0.142,551
2020-11-14T03:06:42,42.805,6.029,CST-1368DR,5794,8109,15071,0.142,551
2020-11-14T03:09:44,42.805,6.029,CST-1368DR,5794,8111,15074,0.141,551
2020-11-14T03:12:46,42.805,6.029,CST-1368DR,5794,8108,15069,0.143,551
2020-11-14T03:15:47,42.805,6.029,CST-1368DR,5794,8110,15072,0.142,551
2020-11-14T03:18:49,42.805,6.029,CST-1368DR,5794,8111,15074,0.141,551
2020-11-14T03:21:50,42.805,6.029,CST-1368DR,5794,8110,15072,0.142,551
2020-11-14T03:24:52,42.805,6.029,CST-1368DR,5794,8110,15072,0.142,551
2020-11-14T03:27:54,42.805,6.029,CST-1368DR,5794,8110,15073,0.142,551
2020-11-14T03:30:55,42.805,6.029,CST-1368DR,5794,8110,15073,0.142,551
2020-11-14T03:33:57,42.805,6.029,CST-1368DR,5794,8108,15069,0.143,551
2020-11-14T03:36:58,42.805,6.029,CST-1368DR,5794,8111,15074,0.141,551
2020-11-14T03:40:00,42.805,6.029,CST-1368DR,5794,8109,15071,0.142,551
2020-11-14T03:43:01,42.805,6.029,CST-1368DR,5794,8109,15071,0.142,551
2020-11-14T03:46:03,42.805,6.029,CST-1368DR,5794,8111,15074,0.141,551
2020-11-14T03:49:05,42.805,6.029,CST-1368DR,5794,8108,15068,0.143,551
2020-11-14T03:52:06,42.805,6.029,CST-1368DR,5794,8109,15070,0.142,551
2020-11-14T03:55:08,42.805,6.029,CST-1368DR,5794,8109,15071,0.142,551
2020-11-14T03:58:09,42.805,6.029,CST-1368DR,5794,8109,15070,0.142,551
2020-11-14T04:01:11,42.805,6.029,CST-1368DR,5794,8109,15070,0.142,551
2020-11-14T04:04:12,42.805,6.029,CST-1368DR,5794,8110,15073,0.142,551
2020-11-14T04:07:14,42.805,6.029,CST-1368DR,5794,8109,15071,0.142,551
2020-11-14T04:10:16,42.805,6.029,CST-1368DR,5794,8111,15074,0.141,551
2020-11-14T04:13:17,42.805,6.029,CST-1368DR,5794,8110,15073,0.142,551
2020-11-14T04:16:19,42.805,6.029,CST-1368DR,5794,8109,15071,0.142,551
2020-11-14T04:19:20,42.805,6.029,CST-1368DR,5794,8110,15073,0.142,551
2020-11-14T04:22:22,42.805,6.029,CST-1368DR,5794,8105,15062,0.144,551
2020-11-14T04:25:24,42.805,6.029,CST-1368DR,5794,8109,15071,0.142,551
2020-11-14T04:28:25,42.805,6.029,CST-1368DR,5794,8111,15074,0.141,551
2020-11-14T04:31:27,42.805,6.029,CST-1368DR,5794,8111,15074,0.141,551
2020-11-14T04:34:28,42.805,6.029,CST-1368DR,5794,8110,15073,0.142,551
2020-11-14T04:37:30,42.805,6.029,CST-1368DR,5794,8111,15074,0.141,551
2020-11-14T04:40:31,42.805,6.029,CST-1368DR,5794,8109,15070,0.142,551
2020-11-14T04:43:33,42.805,6.029,CST-1368DR,5794,8107,15067,0.143,551
2020-11-14T04:46:35,42.805,6.029,CST-1368DR,5794,8109,15070,0.142,551
2020-11-14T04:49:36,42.805,6.029,CST-1368DR,5794,8109,15071,0.142,551
2020-11-14T04:52:38,42.805,6.029,CST-1368DR,5794,8106,15065,0.144,551
2020-11-14T04:55:39,42.805,6.029,CST-1368DR,5794,8104,15062,0.144,551
2020-11-14T04:58:41,42.805,6.029,CST-1368DR,5794,8109,15071,0.142,551
2020-11-14T05:01:43,42.805,6.029,CST-1368DR,5794,8110,15072,0.142,551
2020-11-14T05:04:44,42.805,6.029,CST-1368DR,5794,8110,15072,0.142,551
2020-11-14T05:07:46,42.805,6.029,CST-1368DR,5794,8109,15070,0.142,551
2020-11-14T05:10:47,42.805,6.029,CST-1368DR,5794,8109,15071,0.142,551
2020-11-14T05:13:49,42.805,6.029,CST-1368DR,5794,8107,15067,0.143,551
2020-11-14T05:16:50,42.805,6.029,CST-1368DR,5794,8104,15062,0.144,551
2020-11-14T05:19:52,42.805,6.029,CST-1368DR,5794,8110,15073,0.142,551
2020-11-14T05:22:54,42.805,6.029,CST-1368DR,5794,8110,15073,0.142,551
2020-11-14T05:25:55,42.805,6.029,CST-1368DR,5794,8110,15073,0.142,551
2020-11-14T05:28:57,42.805,6.029,CST-1368DR,5794,8109,15070,0.142,551
2020-11-14T05:31:58,42.805,6.029,CST-1368DR,5794,8110,15073,0.142,551
2020-11-14T05:35:00,42.805,6.029,CST-1368DR,5794,8109,15071,0.142,551
2020-11-14T05:38:01,42.805,6.029,CST-1368DR,5794,8108,15069,0.143,551
2020-11-14T05:41:03,42.805,6.029,CST-1368DR,5794,8111,15074,0.141,551
2020-11-14T05:44:05,42.805,6.029,CST-1368DR,5794,8109,15071,0.142,551
2020-11-14T05:47:06,42.805,6.029,CST-1368DR,5794,8110,15073,0.142,551
2020-11-14T05:50:08,42.805,6.029,CST-1368DR,5794,8110,15073,0.142,551
2020-11-14T05:53:09,42.805,6.029,CST-1368DR,5794,8108,15069,0.143,551
2020-11-14T05:56:11,42.805,6.029,CST-1368DR,5794,8111,15074,0.141,551
2020-11-14T05:59:13,42.805,6.029,CST-1368DR,5794,8110,15072,0.142,551
2020-11-14T06:02:14,42.805,6.029,CST-1368DR,5794,8107,15066,0.143,551
2020-11-14T06:05:16,42.805,6.029,CST-1368DR,5794,8109,15071,0.142,551
2020-11-14T06:08:17,42.805,6.029,CST-1368DR,5794,8109,15071,0.142,551
2020-11-14T06:11:19,42.805,6.029,CST-1368DR,5794,8110,15073,0.142,551
2020-11-14T06:14:20,42.805,6.029,CST-1368DR,5794,8109,15071,0.142,551
2020-11-14T06:17:22,42.805,6.029,CST-1368DR,5794,8109,15070,0.142,551
2020-11-14T06:20:24,42.805,6.029,CST-1368DR,5794,8109,15071,0.142,551
2020-11-14T06:23:25,42.805,6.029,CST-1368DR,5794,8109,15071,0.142,551
2020-11-14T06:26:27,42.805,6.029,CST-1368DR,5794,8109,15071,0.142,551
2020-11-14T06:29:28,42.805,6.029,CST-1368DR,5794,8107,15066,0.143,551
2020-11-14T06:32:30,42.805,6.029,CST-1368DR,5794,8109,15071,0.142,551
2020-11-14T06:35:32,42.805,6.029,CST-1368DR,5794,8106,15064,0.144,551
2020-11-14T06:38:33,42.805,6.029,CST-1368DR,5794,8109,15071,0.142,551
2020-11-14T06:41:35,42.805,6.029,CST-1368DR,5794,8109,15071,0.142,551
2020-11-14T06:44:36,42.805,6.029,CST-1368DR,5794,8109,15070,0.142,551
2020-11-14T06:47:38,42.805,6.029,CST-1368DR,5794,8109,15071,0.142,551
2020-11-14T06:50:39,42.805,6.029,CST-1368DR,5794,8109,15070,0.142,551
2020-11-14T06:53:41,42.805,6.029,CST-1368DR,5794,8108,15069,0.143,551
2020-11-14T06:56:43,42.805,6.029,CST-1368DR,5794,8109,15071,0.142,551
2020-11-14T06:59:44,42.805,6.029,CST-1368DR,5794,8108,15069,0.143,550
2020-11-14T07:02:46,42.805,6.029,CST-1368DR,5794,8107,15067,0.143,551
2020-11-14T07:05:47,42.805,6.029,CST-1368DR,5794,8108,15069,0.143,551
2020-11-14T07:08:49,42.805,6.029,CST-1368DR,5794,8107,15067,0.143,551
2020-11-14T07:11:50,42.805,6.029,CST-1368DR,5794,8108,15069,0.143,551
2020-11-14T07:14:52,42.805,6.029,CST-1368DR,5794,8109,15070,0.142,551
2020-11-14T07:17:54,42.805,6.029,CST-1368DR,5794,8109,15070,0.142,551
2020-11-14T07:20:55,42.805,6.029,CST-1368DR,5794,8105,15062,0.144,551
2020-11-14T07:23:57,42.805,6.029,CST-1368DR,5793,8105,15066,0.143,551
2020-11-14T07:26:58,42.805,6.029,CST-1368DR,5794,8107,15067,0.143,551
2020-11-14T07:30:00,42.805,6.029,CST-1368DR,5794,8108,15069,0.143,550
2020-11-14T07:33:02,42.805,6.029,CST-1368DR,5794,8108,15069,0.143,551
2020-11-14T07:36:03,42.805,6.029,CST-1368DR,5794,8106,15066,0.143,551
2020-11-14T07:39:05,42.805,6.029,CST-1368DR,5794,8109,15070,0.142,551
2020-11-14T07:42:06,42.805,6.029,CST-1368DR,5794,8109,15071,0.142,551
2020-11-14T07:45:08,42.805,6.029,CST-1368DR,5794,8109,15070,0.142,551
2020-11-14T07:48:09,42.805,6.029,CST-1368DR,5794,8109,15071,0.142,551
2020-11-14T07:51:11,42.805,6.029,CST-1368DR,5794,8109,15071,0.142,551
2020-11-14T07:54:13,42.805,6.029,CST-1368DR,5793,8105,15065,0.144,551
2020-11-14T07:57:14,42.805,6.029,CST-1368DR,5794,8107,15067,0.143,551
2020-11-14T08:00:16,42.805,6.029,CST-1368DR,5794,8109,15070,0.142,551
2020-11-14T08:03:17,42.805,6.029,CST-1368DR,5793,8108,15071,0.142,551
2020-11-14T08:06:19,42.805,6.029,CST-1368DR,5794,8109,15071,0.142,551
2020-11-14T08:09:21,42.805,6.029,CST-1368DR,5794,8109,15071,0.142,551
2020-11-14T08:12:22,42.805,6.029,CST-1368DR,5793,8109,15073,0.142,551
2020-11-14T08:15:24,42.805,6.029,CST-1368DR,5794,8109,15070,0.142,551
2020-11-14T08:18:25,42.805,6.029,CST-1368DR,5793,8108,15071,0.142,551
2020-11-14T08:21:27,42.805,6.029,CST-1368DR,5793,8107,15069,0.143,551
2020-11-14T08:24:28,42.805,6.029,CST-1368DR,5793,8109,15072,0.142,551
2020-11-14T08:27:30,42.805,6.029,CST-1368DR,5794,8109,15071,0.142,551
2020-11-14T08:30:32,42.805,6.029,CST-1368DR,5793,8108,15071,0.142,551
2020-11-14T08:33:33,42.805,6.029,CST-1368DR,5793,8109,15073,0.142,551
2020-11-14T08:36:35,42.805,6.029,CST-1368DR,5793,8109,15073,0.142,551
2020-11-14T08:39:36,42.805,6.029,CST-1368DR,5794,8109,15071,0.142,551
2020-11-14T08:42:38,42.805,6.029,CST-1368DR,5793,8109,15072,0.142,551
2020-11-14T08:45:39,42.805,6.029,CST-1368DR,5793,8108,15072,0.142,551
2020-11-14T08:48:41,42.805,6.029,CST-1368DR,5793,8109,15072,0.142,551
2020-11-14T08:51:43,42.805,6.029,CST-1368DR,5793,8109,15073,0.142,551
2020-11-14T08:54:44,42.805,6.029,CST-1368DR,5793,8107,15070,0.142,551
2020-11-14T08:57:46,42.805,6.029,CST-1368DR,5793,8108,15071,0.142,551
2020-11-14T09:00:47,42.805,6.029,CST-1368DR,5793,8108,15071,0.142,551
2020-11-14T09:03:49,42.805,6.029,CST-1368DR,5793,8109,15073,0.142,551
2020-11-14T09:06:51,42.805,6.029,CST-1368DR,5793,8108,15071,0.142,551
2020-11-14T09:09:52,42.805,6.029,CST-1368DR,5793,8108,15071,0.142,551
2020-11-14T09:12:54,42.805,6.029,CST-1368DR,5793,8109,15073,0.142,550
2020-11-14T09:15:55,42.805,6.029,CST-1368DR,5793,8107,15069,0.143,551
2020-11-14T09:18:57,42.805,6.029,CST-1368DR,5793,8108,15071,0.142,551
2020-11-14T09:21:58,42.805,6.029,CST-1368DR,5793,8109,15073,0.142,551
2020-11-14T09:25:00,42.805,6.029,CST-1368DR,5793,8108,15071,0.142,551
2020-11-14T09:28:02,42.805,6.029,CST-1368DR,5793,8109,15072,0.142,551
2020-11-14T09:31:03,42.805,6.029,CST-1368DR,5793,8109,15073,0.142,551
2020-11-14T09:34:05,42.805,6.029,CST-1368DR,5793,8108,15071,0.142,551
2020-11-14T09:37:06,42.805,6.029,CST-1368DR,5793,8108,15071,0.142,551
2020-11-14T09:40:08,42.805,6.029,CST-1368DR,5793,8108,15072,0.142,551
2020-11-14T09:43:10,42.805,6.029,CST-1368DR,5793,8109,15072,0.142,551
2020-11-14T09:46:11,42.805,6.029,CST-1368DR,5793,8109,15072,0.142,551
2020-11-14T09:49:13,42.805,6.029,CST-1368DR,5793,8108,15072,0.142,551
2020-11-14T09:52:14,42.805,6.029,CST-1368DR,5793,8109,15072,0.142,551
2020-11-14T09:55:16,42.805,6.029,CST-1368DR,5793,8109,15073,0.142,551
2020-11-14T09:58:17,42.805,6.029,CST-1368DR,5793,8107,15069,0.143,551
2020-11-14T10:01:19,42.805,6.029,CST-1368DR,5793,8108,15071,0.142,551
2020-11-14T10:04:21,42.805,6.029,CST-1368DR,5793,8108,15072,0.142,551
2020-11-14T10:07:22,42.805,6.029,CST-1368DR,5793,8109,15072,0.142,551
2020-11-14T10:10:24,42.805,6.029,CST-1368DR,5793,8106,15067,0.143,551
2020-11-14T10:13:25,42.805,6.029,CST-1368DR,5793,8105,15065,0.144,551
2020-11-14T10:16:27,42.805,6.029,CST-1368DR,5793,8107,15069,0.143,551
2020-11-14T10:19:29,42.805,6.029,CST-1368DR,5793,8102,15060,0.145,551
2020-11-14T10:22:30,42.805,6.029,CST-1368DR,5793,8106,15068,0.143,551
2020-11-14T10:25:32,42.805,6.029,CST-1368DR,5793,8107,15070,0.142,551
2020-11-14T10:28:33,42.805,6.029,CST-1368DR,5793,8107,15069,0.143,551
2020-11-14T10:31:35,42.805,6.029,CST-1368DR,5793,8106,15067,0.143,551
2020-11-14T10:34:36,42.805,6.029,CST-1368DR,5793,8105,15066,0.143,551
2020-11-14T10:37:38,42.805,6.029,CST-1368DR,5793,8105,15066,0.143,551
2020-11-14T10:40:40,42.805,6.029,CST-1368DR,5793,8106,15068,0.143,551
2020-11-14T10:43:41,42.805,6.029,CST-1368DR,5793,8106,15067,0.143,551
2020-11-14T10:46:43,42.805,6.029,CST-1368DR,5793,8106,15067,0.143,551
2020-11-14T10:49:44,42.805,6.029,CST-1368DR,5793,8103,15062,0.144,551
2020-11-14T10:52:46,42.805,6.029,CST-1368DR,5793,8100,15057,0.146,551
2020-11-14T10:55:47,42.805,6.029,CST-1368DR,5793,8106,15067,0.143,551
2020-11-14T10:58:49,42.805,6.029,CST-1368DR,5793,8102,15060,0.145,551
2020-11-14T11:01:51,42.805,6.029,CST-1368DR,5793,8105,15065,0.144,551
2020-11-14T11:04:52,42.805,6.029,CST-1368DR,5793,8104,15064,0.144,551
2020-11-14T11:07:54,42.805,6.029,CST-1368DR,5793,8105,15065,0.144,551
2020-11-14T11:10:55,42.805,6.029,CST-1368DR,5793,8104,15063,0.144,551
2020-11-14T11:13:57,42.805,6.029,CST-1368DR,5793,8104,15063,0.144,551
2020-11-14T11:16:59,42.805,6.029,CST-1368DR,5793,8105,15065,0.144,551
2020-11-14T11:20:00,42.805,6.029,CST-1368DR,5793,8104,15064,0.144,551
2020-11-14T11:23:02,42.805,6.029,CST-1368DR,5793,8105,15065,0.144,551
2020-11-14T11:26:03,42.805,6.029,CST-1368DR,5793,8104,15064,0.144,551
2020-11-14T11:29:05,42.805,6.029,CST-1368DR,5793,8104,15064,0.144,551
2020-11-14T11:32:06,42.805,6.029,CST-1368DR,5793,8102,15061,0.145,551
2020-11-14T11:35:08,42.805,6.029,CST-1368DR,5793,8104,15064,0.144,551
2020-11-14T11:38:10,42.805,6.029,CST-1368DR,5793,8101,15058,0.146,551
2020-11-14T11:41:11,42.805,6.029,CST-1368DR,5793,8104,15064,0.144,551
2020-11-14T11:44:13,42.805,6.029,CST-1368DR,5793,8104,15064,0.144,551
2020-11-14T11:47:14,42.805,6.029,CST-1368DR,5793,8104,15063,0.144,551
2020-11-14T11:50:16,42.805,6.029,CST-1368DR,5793,8105,15065,0.144,551
2020-11-14T11:53:17,42.805,6.029,CST-1368DR,5793,8103,15063,0.144,551
2020-11-14T11:56:19,42.805,6.029,CST-1368DR,5793,8103,15063,0.144,551
2020-11-14T11:59:21,42.805,6.029,CST-1368DR,5793,8104,15064,0.144,551
2020-11-14T12:02:22,42.805,6.029,CST-1368DR,5793,8104,15063,0.144,551
2020-11-14T12:05:24,42.805,6.029,CST-1368DR,5793,8104,15064,0.144,551
2020-11-14T12:08:25,42.805,6.029,CST-1368DR,5793,8104,15064,0.144,551
2020-11-14T12:11:27,42.805,6.029,CST-1368DR,5793,8104,15063,0.144,551
2020-11-14T12:14:29,42.805,6.029,CST-1368DR,5793,8104,15064,0.144,551
2020-11-14T12:17:30,42.805,6.029,CST-1368DR,5793,8104,15064,0.144,551
2020-11-14T12:20:32,42.805,6.029,CST-1368DR,5793,8104,15064,0.144,551
2020-11-14T12:23:33,42.805,6.029,CST-1368DR,5793,8104,15064,0.144,551
2020-11-14T12:26:35,42.805,6.029,CST-1368DR,5793,8104,15064,0.144,551
2020-11-14T12:29:36,42.805,6.029,CST-1368DR,5793,8104,15063,0.144,551
2020-11-14T12:32:38,42.805,6.029,CST-1368DR,5793,8104,15064,0.144,551
2020-11-14T12:35:40,42.805,6.029,CST-1368DR,5793,8103,15063,0.144,551
2020-11-14T12:38:41,42.805,6.029,CST-1368DR,5793,8103,15063,0.144,551
2020-11-14T12:41:43,42.805,6.029,CST-1368DR,5793,8104,15064,0.144,551
2020-11-14T12:44:44,42.805,6.029,CST-1368DR,5793,8105,15065,0.144,551
2020-11-14T12:47:46,42.805,6.029,CST-1368DR,5793,8103,15062,0.144,551
2020-11-14T12:50:48,42.805,6.029,CST-1368DR,5793,8104,15064,0.144,551
2020-11-14T12:53:49,42.805,6.029,CST-1368DR,5793,8104,15064,0.144,551
2020-11-14T12:56:51,42.805,6.029,CST-1368DR,5793,8104,15063,0.144,551
2020-11-14T12:59:52,42.805,6.029,CST-1368DR,5793,8105,15065,0.144,551
2020-11-14T13:02:54,42.805,6.029,CST-1368DR,5793,8105,15065,0.144,551
2020-11-14T13:05:55,42.805,6.029,CST-1368DR,5793,8104,15064,0.144,551
2020-11-14T13:08:57,42.805,6.029,CST-1368DR,5793,8104,15064,0.144,551
2020-11-14T13:11:59,42.805,6.029,CST-1368DR,5793,8104,15064,0.144,551
2020-11-14T13:15:00,42.805,6.029,CST-1368DR,5793,8105,15065,0.144,551
2020-11-14T13:18:02,42.805,6.029,CST-1368DR,5793,8104,15064,0.144,551
2020-11-14T13:21:03,42.805,6.029,CST-1368DR,5793,8104,15064,0.144,551
2020-11-14T13:24:05,42.805,6.029,CST-1368DR,5793,8105,15065,0.144,551
2020-11-14T13:27:06,42.805,6.029,CST-1368DR,5793,8105,15066,0.143,551
2020-11-14T13:30:08,42.805,6.029,CST-1368DR,5793,8103,15061,0.145,551
2020-11-14T13:33:10,42.805,6.029,CST-1368DR,5793,8104,15064,0.144,551
2020-11-14T13:36:11,42.805,6.029,CST-1368DR,5793,8105,15065,0.144,551
2020-11-14T13:39:13,42.805,6.029,CST-1368DR,5793,8105,15065,0.144,551
2020-11-14T13:42:14,42.805,6.029,CST-1368DR,5793,8104,15064,0.144,551
2020-11-14T13:45:16,42.805,6.029,CST-1368DR,5793,8104,15064,0.144,550
2020-11-14T13:48:18,42.805,6.029,CST-1368DR,5793,8104,15064,0.144,551
2020-11-14T13:51:19,42.805,6.029,CST-1368DR,5793,8105,15065,0.144,551
2020-11-14T13:54:21,42.805,6.029,CST-1368DR,5793,8104,15064,0.144,551
2020-11-14T13:57:22,42.805,6.029,CST-1368DR,5793,8105,15065,0.144,551
2020-11-14T14:00:24,42.805,6.029,CST-1368DR,5793,8105,15065,0.144,551
2020-11-14T14:03:25,42.805,6.029,CST-1368DR,5793,8104,15064,0.144,551
2020-11-14T14:06:27,42.805,6.029,CST-1368DR,5793,8105,15065,0.144,551
2020-11-14T14:09:29,42.805,6.029,CST-1368DR,5793,8104,15064,0.144,551
2020-11-14T14:12:30,42.805,6.029,CST-1368DR,5793,8104,15064,0.144,551
2020-11-14T14:15:32,42.805,6.029,CST-1368DR,5793,8104,15064,0.144,551
2020-11-14T14:18:33,42.805,6.029,CST-1368DR,5793,8104,15064,0.144,551
2020-11-14T14:21:35,42.805,6.029,CST-1368DR,5793,8098,15052,0.147,551
2020-11-14T14:24:37,42.805,6.029,CST-1368DR,5793,8104,15063,0.144,551
2020-11-14T14:27:38,42.805,6.029,CST-1368DR,5793,8104,15064,0.144,551
2020-11-14T14:30:40,42.805,6.029,CST-1368DR,5793,8104,15063,0.144,551
2020-11-14T14:33:41,42.805,6.029,CST-1368DR,5793,8105,15066,0.143,551
2020-11-14T14:36:43,42.805,6.029,CST-1368DR,5793,8105,15066,0.143,551
2020-11-14T14:39:44,42.805,6.029,CST-1368DR,5793,8105,15066,0.143,551
2020-11-14T14:42:46,42.805,6.029,CST-1368DR,5793,8105,15065,0.144,551
2020-11-14T14:45:48,42.805,6.029,CST-1368DR,5793,8105,15065,0.144,551
2020-11-14T14:48:49,42.805,6.029,CST-1368DR,5793,8105,15065,0.144,551
2020-11-14T14:51:51,42.805,6.029,CST-1368DR,5793,8105,15065,0.144,551
2020-11-14T14:54:52,42.805,6.029,CST-1368DR,5793,8104,15064,0.144,551
2020-11-14T14:57:54,42.805,6.029,CST-1368DR,5793,8104,15064,0.144,551
2020-11-14T15:00:55,42.805,6.029,CST-1368DR,5793,8103,15062,0.144,551
2020-11-14T15:03:57,42.805,6.029,CST-1368DR,5793,8104,15064,0.144,551
2020-11-14T15:06:59,42.805,6.029,CST-1368DR,5792,8104,15067,0.143,551
2020-11-14T15:10:00,42.805,6.029,CST-1368DR,5792,8104,15067,0.143,551
2020-11-14T15:13:02,42.805,6.029,CST-1368DR,5793,8103,15063,0.144,551
2020-11-14T15:16:03,42.805,6.029,CST-1368DR,5793,8104,15064,0.144,551
2020-11-14T15:19:05,42.805,6.029,CST-1368DR,5793,8106,15067,0.143,551
2020-11-14T15:22:07,42.805,6.029,CST-1368DR,5793,8105,15066,0.143,551
2020-11-14T15:25:08,42.805,6.029,CST-1368DR,5793,8104,15064,0.144,551
2020-11-14T15:28:10,42.805,6.029,CST-1368DR,5793,8105,15065,0.144,551
2020-11-14T15:31:11,42.805,6.029,CST-1368DR,5793,8105,15066,0.143,551
2020-11-14T15:34:13,42.805,6.029,CST-1368DR,5793,8105,15066,0.143,551
2020-11-14T15:37:14,42.805,6.029,CST-1368DR,5793,8105,15066,0.143,551
2020-11-14T15:40:16,42.805,6.029,CST-1368DR,5793,8105,15065,0.144,551
2020-11-14T15:43:18,42.805,6.029,CST-1368DR,5792,8105,15067,0.143,551
2020-11-14T15:46:19,42.805,6.029,CST-1368DR,5793,8105,15065,0.144,551
2020-11-14T15:49:21,42.805,6.029,CST-1368DR,5793,8104,15064,0.144,551
2020-11-14T15:52:22,42.805,6.029,CST-1368DR,5793,8105,15065,0.144,551
2020-11-14T15:55:24,42.805,6.029,CST-1368DR,5793,8105,15066,0.143,551
2020-11-14T15:58:26,42.805,6.029,CST-1368DR,5793,8104,15064,0.144,551
2020-11-14T16:01:27,42.805,6.029,CST-1368DR,5793,8105,15065,0.144,551
2020-11-14T16:04:29,42.805,6.029,CST-1368DR,5793,8105,15066,0.143,551
2020-11-14T16:07:30,42.805,6.029,CST-1368DR,5793,8104,15063,0.144,551
2020-11-14T16:10:32,42.805,6.029,CST-1368DR,5792,8104,15066,0.143,551
2020-11-14T16:13:33,42.805,6.029,CST-1368DR,5792,8105,15068,0.143,551
2020-11-14T16:16:35,42.805,6.029,CST-1368DR,5793,8105,15065,0.144,551
2020-11-14T16:19:37,42.805,6.029,CST-1368DR,5792,8104,15066,0.143,551
2020-11-14T16:22:38,42.805,6.029,CST-1368DR,5792,8102,15063,0.144,551
2020-11-14T16:25:40,42.805,6.029,CST-1368DR,5792,8104,15066,0.143,551
2020-11-14T16:28:41,42.805,6.029,CST-1368DR,5793,8105,15065,0.144,551
2020-11-14T16:31:43,42.805,6.029,CST-1368DR,5793,8105,15066,0.143,551
2020-11-14T16:34:45,42.805,6.029,CST-1368DR,5793,8105,15066,0.143,551
2020-11-14T16:37:46,42.805,6.029,CST-1368DR,5793,8104,15064,0.144,551
2020-11-14T16:40:48,42.805,6.029,CST-1368DR,5792,8104,15066,0.143,551
2020-11-14T16:43:49,42.805,6.029,CST-1368DR,5792,8103,15064,0.144,551
2020-11-14T16:46:51,42.805,6.029,CST-1368DR,5792,8104,15066,0.143,551
2020-11-14T16:49:52,42.805,6.029,CST-1368DR,5792,8105,15068,0.143,551
2020-11-14T16:52:54,42.805,6.029,CST-1368DR,5792,8104,15066,0.143,551